Location: Waco, TX
(31.5480°N, 97.1670°W)
Time: 15:13:59
(UTC-05:00)

ISS - Pass Details

Date: 14 August 2019
Orbit: 410 x 421 km, 51.6° (Epoch: 22 August)

Event Time Altitude Azimuth Distance (km) Brightness Sun altitude
Rises 11:12:23 0° 245° (WSW) 2,344 -0.2 53.5°
Reaches altitude 10° 11:14:38 10° 256° (WSW) 1,487 -1.2 53.9°
Maximum altitude 11:17:38 30° 320° (NW) 768 -2.4 54.5°
Drops below altitude 10° 11:20:39 10° 25° (NNE) 1,498 -0.8 55.1°
Sets 11:22:55 0° 36° (NE) 2,366 0.2 55.6°
